Regional Weather Roundup
Issued by NWS

Home | Current Version | Previous Version | Text Only | Print | Product List | Glossary On
Versions: 1 2 3 4 5 6 7 8 9 10 11 12 13 14 15 16 17 18 19 20 21 22 23 24 25 26 27 28 29 30 31 32 33 34 35 36 37 38 39 40 41 42 43 44 45 46 47 48 49 50
000
ASUS43 KBIS 152220
RWRND

NORTH DAKOTA REGIONAL WEATHER ROUNDUP
NATIONAL WEATHER SERVICE BISMARCK ND
500 PM CDT TUE APR 15 2014

NOTE: "FAIR" INDICATES FEW OR NO CLOUDS BELOW 12,000 FEET WITH NO
SIGNIFICANT WEATHER AND/OR OBSTRUCTIONS TO VISIBILITY.


NDZ001>003-009>011-017-152300-
NORTHWEST NORTH DAKOTA

CITY           SKY/WX    TMP DP  RH WIND       PRES   REMARKS
WILLISTON      CLOUDY    48  27  44 W23       29.61F
MINOT          CLOUDY    36  17  46 E22G29    29.77F
MINOT AFB      CLOUDY    35  20  53 E21G31    29.77F
$$

NDZ018>021-031>035-040>046-152300-
SOUTHWEST NORTH DAKOTA

CITY           SKY/WX    TMP DP  RH WIND       PRES   REMARKS
BISMARCK       PTSUNNY   44  19  36 SE22      29.74F
DICKINSON      MOSUNNY   53  21  28 SE17      29.55F
GARRISON         N/A     41  19  41 SE17      29.72S
HETTINGER ARPT SUNNY     57  21  24 SE12      29.56F
$$

NDZ004>008-012>016-024-026-027-054-152300-
NORTHEAST NORTH DAKOTA

CITY           SKY/WX    TMP DP  RH WIND       PRES   REMARKS
GRAND FORKS    CLOUDY    31  12  45 SE12      29.97F
GRND FRKS AFB  MOSUNNY   30  10  43 E13       30.00F
DEVILS LAKE    CLOUDY    32  10  40 SE16      29.91S
$$

NDZ022-023-025-028>030-036>039-047>053-152300-
SOUTHEAST NORTH DAKOTA

CITY           SKY/WX    TMP DP  RH WIND       PRES   REMARKS
FARGO          PTSUNNY   34  13  41 SE15      29.99F
JAMESTOWN      CLOUDY    33  20  58 E17G29    29.87F
$$




USA.gov is the U.S. government's official web portal to all federal, state and local government web resources and services.